SL-14 R/B

Last updated on Wed Mar 11 2026 00:02:18 GMT+0000 (Coordinated Universal Time)

1 21423U 91042B 26069.50052547 .00000648 00000+0 79019-4 0 9996 2 21423 82.4925 219.4219 0015825 235.7847 124.1868 14.81830635853194
UTC large
Height (km)
Speed (km/s)
/
Latitude / Longitude
Inclination (degrees)
Orbital Period (minutes)
Azimuth
Elevation
Range (km)
Doppler Factor

Next 0 passes for location: London (51.5072 / 0.1276)

Sorry there are no passes over London.